Wind_Speed
5 4 5 7 8 9 5 3 4 5 6 7 7 6 4 4 5 4 4 5 5 7 5 4 8 13 12 17 16 8 9 12 14 24 27 24 23 29 29 36 37 27 25
4 3 3 4 4 2 1 3 6 8 6 6 6 5 5 6 6 8 4 5 6 7 6 6 9 13 13 19 15 10 7 10 32 34 33 29 21 29 29 31 30 23 25
3 3 3 1 1 2 2 5 7 7 7 7 7 6 6 8 9 7 3 7 6 8 9 11 13 12 15 16 15 9 11 21 25 33 28 32 32 31 33 29 23 25 21
4 4 2 2 3 5 3 6 8 8 8 7 7 7 8 10 10 6 7 10 9 7 10 10 12 10 14 11 14 14 11 14 22 28 44 28 31 33 29 27 28 20 14
6 6 6 6 7 7 7 7 8 8 7 8 8 8 9 10 9 6 7 10 9 8 11 10 12 12 10 12 14 17 14 17 24 29 39 33 29 26 32 30 22 16 16
8 8 9 9 8 7 8 10 10 10 9 10 11 11 9 10 9 8 8 9 10 10 9 6 7 6 14 15 20 18 17 12 16 28 31 26 26 22 31 20 22 16 11
10 9 10 10 9 9 7 7 9 9 9 8 8 9 9 9 8 7 6 10 10 11 8 8 11 17 10 15 23 24 21 19 17 23 26 24 20 21 24 26 20 13 12
11 10 13 12 8 6 8 8 8 6 7 8 8 8 9 9 8 4 8 8 9 8 13 13 13 15 15 17 22 25 24 22 22 31 29 26 22 22 19 16 14 15 16
11 10 12 10 7 8 7 6 6 7 7 8 9 7 11 13 7 3 9 11 10 11 13 13 11 14 15 16 17 22 23 30 33 30 28 24 20 18 17 19 19 16 13
12 11 12 12 12 10 6 5 6 6 7 7 7 5 10 12 7 5 14 14 12 14 14 11 11 22 24 26 26 25 26 25 25 23 22 21 22 24 22 20 16 13 10
14 13 13 14 12 9 6 6 7 9 9 11 11 13 16 15 12 12 15 15 16 17 13 13 25 29 29 25 22 22 22 22 24 24 26 26 24 21 18 14 12 12 10
16 14 14 13 11 9 8 7 9 11 11 11 11 11 15 16 14 11 15 19 17 13 16 21 22 23 19 20 20 22 24 25 26 25 24 22 20 18 14 11 9 7 5
16 16 14 12 11 10 9 9 9 11 12 12 10 11 12 12 8 9 15 23 23 28 27 21 20 19 19 21 23 26 27 26 24 24 22 20 17 14 12 10 8 7 8
12 14 14 13 12 12 12 11 11 11 11 12 12 12 12 11 10 11 15 17 22 23 17 16 16 15 17 19 22 24 25 25 24 22 19 17 14 12 9 8 8 10 12
12 12 12 13 14 14 13 11 11 12 12 12 12 12 11 11 11 12 13 13 14 15 15 14 13 15 16 19 21 22 22 21 21 20 18 16 14 12 11 12 13 14 16
14 14 13 13 13 14 15 15 14 13 14 14 14 14 13 14 13 11 11 12 14 13 12 12 11 12 14 17 21 23 23 23 22 20 18 16 15 15 15 15 16 18 19
15 13 13 16 16 15 16 17 16 15 15 14 15 15 14 14 13 12 12 12 12 12 13 13 13 13 14 18 20 23 24 24 24 23 21 18 17 18 17 18 19 21 23
16 15 15 14 17 18 17 17 18 17 16 15 16 17 17 17 16 15 15 14 13 13 13 13 14 15 17 18 20 22 25 27 27 27 25 22 20 21 20 22 25 27 28
17 17 17 17 17 21 21 20 19 19 20 19 20 20 19 19 19 19 18 16 15 15 15 15 16 17 18 20 22 24 25 27 28 29 29 27 26 26 26 28 30 30 32
20 20 18 18 18 20 25 24 23 21 21 22 21 21 21 20 19 18 17 17 17 17 18 19 21 21 22 22 24 25 27 29 30 32 33 33 33 32 32 32 34 32 37
22 24 21 19 18 18 19 23 23 22 22 21 21 22 20 19 19 19 18 19 19 19 20 21 22 23 24 25 26 27 28 29 31 32 34 35 35 35 35 38 36 35 46
27 29 27 22 22 21 18 17 17 18 19 20 20 21 19 22 21 21 21 20 19 20 22 23 25 27 28 28 29 30 31 31 31 31 33 34 35 35 38 40 43 41 45
27 30 32 29 25 25 24 23 21 19 19 20 21 22 20 21 21 21 21 22 22 22 23 24 26 29 30 32 32 32 33 34 35 34 35 36 37 37 40 43 43 47 41
35 28 31 33 33 31 30 28 27 28 29 28 26 26 24 23 22 23 22 22 21 21 22 25 27 29 31 32 33 33 33 35 36 38 38 38 40 41 43 44 45 47 47
44 40 36 35 35 37 35 33 31 30 29 31 34 33 32 30 31 33 32 30 29 27 27 27 26 25 26 29 31 33 34 35 35 35 37 38 41 43 44 45 47 47 47
49 48 46 44 42 40 39 38 37 35 33 31 31 31 30 31 31 34 39 40 37 32 29 29 28 26 25 25 26 27 30 31 32 34 37 39 41 45 45 48 51 50 45
Wind_Direction
283 295 296 287 290 299 294 250 174 134 127 154 157 137 153 129 101 107 115 155 173 176 185 163 176 173 172 164 166 159 192 190 201 179 153 149 156 145 136 143 144 149 152
264 278 286 277 331 318 282 213 162 142 153 166 179 153 143 125 114 103 105 120 154 175 176 172 180 169 162 157 155 137 142 191 154 151 147 141 148 142 147 141 143 142 146
230 223 226 103 110 130 143 154 154 155 157 167 165 150 143 138 123 113 112 122 128 139 141 129 137 150 150 152 148 146 122 146 160 163 158 144 142 145 145 147 158 145 139
197 186 159 127 105 126 114 140 145 143 153 160 167 159 148 142 133 126 93 112 106 143 160 153 146 162 166 159 160 165 165 148 142 174 164 154 160 150 152 156 152 145 142
190 167 159 130 118 109 108 122 133 139 155 165 163 161 155 142 139 138 119 114 100 94 138 161 147 144 137 173 170 160 151 141 157 164 172 172 150 157 165 162 165 168 160
179 168 162 135 111 104 106 104 123 138 147 159 163 159 160 150 144 122 114 127 119 106 104 86 137 162 146 147 160 160 131 143 163 164 179 173 166 160 172 180 174 168 161
176 168 159 152 121 105 117 117 119 117 131 146 159 165 179 172 166 145 126 139 128 107 118 114 110 141 133 116 137 155 147 135 141 159 167 163 166 168 161 166 166 165 146
180 166 163 153 146 117 115 106 128 130 136 147 163 174 170 162 153 149 174 161 161 125 126 122 108 134 125 141 134 141 148 145 137 155 149 149 140 146 154 156 152 142 143
182 162 165 170 159 137 123 112 107 116 108 135 150 179 172 169 163 88 157 178 169 154 145 142 125 141 137 137 135 143 137 133 136 143 148 146 154 159 153 146 144 146 150
174 156 152 164 159 139 137 110 95 122 116 124 138 174 194 181 173 132 143 147 156 158 155 140 132 146 136 130 136 140 139 138 138 139 147 152 148 145 143 143 147 153 164
174 168 158 158 160 153 150 127 117 117 123 111 113 101 116 138 143 150 147 144 150 154 155 136 139 141 140 138 140 142 140 138 138 139 140 142 144 145 146 149 154 166 173
180 182 174 168 162 158 144 130 129 125 128 126 114 121 137 132 124 121 151 153 145 150 154 148 138 145 141 140 139 136 134 134 136 139 143 146 150 153 156 158 170 196 227
181 192 190 177 168 159 152 144 141 137 131 132 131 131 136 145 135 116 133 149 142 143 145 148 153 148 150 155 152 147 145 146 148 151 156 159 162 167 176 190 210 241 264
182 186 192 194 187 177 169 163 155 151 147 141 139 136 137 139 130 121 127 145 148 153 155 158 163 171 168 163 162 160 160 162 163 166 168 173 181 189 201 222 248 267 282
193 188 192 191 186 185 181 179 173 169 164 164 158 149 142 137 133 129 128 136 147 160 161 165 169 172 170 175 174 176 178 179 180 180 185 192 203 216 231 248 263 277 291
203 207 201 205 202 189 188 190 192 188 184 180 174 167 166 161 156 155 151 150 154 163 171 176 180 182 188 190 192 191 192 193 195 199 206 218 227 235 246 259 273 282 286
213 213 215 215 213 212 200 199 200 200 200 196 192 189 185 176 177 174 174 175 179 181 182 189 196 200 201 202 203 206 207 206 208 213 223 235 243 248 256 267 276 282 281
219 220 220 221 222 219 216 211 205 203 207 206 205 205 203 199 197 194 196 198 200 200 203 209 214 217 218 217 217 217 217 218 217 222 232 243 252 258 263 270 274 280 287
225 222 222 220 218 216 218 216 215 209 203 204 208 209 212 211 209 211 214 214 214 215 219 222 226 230 234 234 231 228 228 230 229 231 238 248 255 261 268 273 279 285 290
232 223 223 224 221 216 213 215 215 215 213 212 213 214 217 219 221 224 224 225 229 232 232 231 232 234 236 239 241 241 240 240 240 240 245 250 255 261 267 273 279 284 276
241 222 217 216 217 215 216 220 221 219 218 219 219 222 223 227 230 233 232 232 231 231 232 235 239 241 243 244 244 244 244 245 245 245 248 253 258 263 267 269 296 284 280
235 232 228 224 219 218 215 213 213 216 219 220 222 226 225 230 235 240 243 242 240 239 239 238 238 240 241 242 244 246 248 250 251 252 253 257 261 265 270 272 274 283 293
227 236 232 230 223 221 224 225 224 223 225 228 230 234 236 242 247 249 249 247 245 247 248 248 247 248 249 249 250 251 251 252 254 257 258 261 265 267 267 272 276 288 294
222 230 237 231 229 227 230 235 240 239 237 235 236 236 242 243 245 245 248 252 253 253 253 255 256 254 253 254 255 257 258 256 256 259 262 264 267 268 269 272 272 278 285
222 229 235 238 234 233 237 238 240 242 244 244 246 249 249 254 254 257 255 252 253 259 265 265 265 264 263 263 262 263 263 263 263 266 269 269 270 272 271 275 277 278 277
221 224 230 234 238 238 234 235 235 237 236 238 242 244 251 256 257 257 258 259 257 260 263 263 263 265 263 263 265 266 267 267 266 266 267 267 268 273 274 274 275 276 273
Height
3056 3056 3056 3056 3055 3054 3052 3051 3052 3052 3052 3054 3055 3055 3056 3056 3056 3056 3056 3057 3058 3060 3060 3062 3064 3066 3069 3071 3074 3075 3076 3079 3080 3079 3087 3092 3099 3105 3110 3115 3122 3128 3133
3055 3055 3055 3055 3054 3053 3052 3052 3051 3052 3053 3055 3056 3057 3058 3058 3058 3058 3057 3058 3058 3060 3062 3064 3066 3069 3070 3072 3075 3076 3075 3077 3079 3085 3091 3096 3103 3107 3114 3119 3126 3131 3136
3054 3055 3055 3054 3053 3053 3052 3052 3052 3052 3054 3056 3057 3058 3059 3060 3060 3060 3060 3060 3060 3062 3063 3065 3067 3070 3073 3074 3077 3077 3078 3080 3084 3090 3093 3100 3105 3112 3118 3123 3129 3134 3138
3054 3055 3055 3054 3054 3053 3053 3052 3052 3053 3055 3057 3058 3059 3060 3061 3062 3062 3062 3061 3063 3064 3065 3067 3069 3071 3073 3075 3078 3081 3083 3085 3089 3092 3097 3104 3111 3116 3122 3127 3131 3137 3141
3053 3055 3056 3055 3055 3054 3054 3054 3054 3055 3057 3058 3059 3061 3062 3063 3064 3064 3065 3065 3066 3065 3066 3068 3071 3073 3075 3076 3079 3083 3086 3089 3092 3098 3101 3107 3114 3119 3124 3129 3134 3139 3142
3054 3055 3056 3056 3056 3056 3056 3056 3057 3057 3058 3059 3060 3062 3064 3065 3067 3067 3068 3069 3069 3070 3071 3071 3073 3074 3076 3077 3081 3085 3089 3092 3094 3099 3105 3111 3117 3121 3127 3132 3136 3140 3143
3054 3055 3056 3058 3058 3058 3058 3059 3059 3060 3061 3061 3062 3064 3065 3067 3069 3070 3071 3072 3072 3074 3074 3075 3075 3076 3078 3080 3083 3088 3092 3095 3099 3105 3109 3114 3119 3123 3128 3133 3138 3142 3144
3055 3056 3057 3059 3060 3061 3061 3061 3061 3061 3063 3063 3064 3065 3067 3068 3070 3071 3073 3074 3075 3077 3078 3078 3079 3080 3083 3086 3087 3091 3094 3098 3102 3107 3113 3118 3123 3128 3132 3137 3140 3142 3145
3055 3057 3058 3060 3062 3062 3063 3063 3063 3064 3064 3065 3066 3066 3067 3069 3071 3072 3072 3075 3077 3079 3081 3082 3084 3086 3088 3090 3093 3095 3099 3102 3106 3110 3117 3123 3127 3131 3135 3138 3141 3144 3147
3056 3058 3059 3061 3063 3064 3065 3065 3065 3065 3066 3066 3067 3066 3067 3070 3072 3074 3074 3076 3078 3081 3083 3085 3086 3089 3091 3094 3098 3102 3105 3109 3113 3117 3122 3126 3130 3134 3137 3140 3144 3146 3148
3057 3059 3060 3062 3064 3065 3066 3067 3067 3068 3069 3069 3069 3069 3069 3072 3074 3075 3077 3078 3081 3084 3086 3088 3090 3093 3096 3100 3104 3108 3111 3115 3118 3122 3126 3129 3133 3136 3139 3142 3144 3147 3148
3057 3059 3061 3063 3064 3066 3067 3068 3069 3070 3071 3072 3073 3074 3074 3076 3077 3078 3079 3081 3083 3087 3090 3093 3096 3099 3102 3105 3109 3112 3116 3119 3122 3126 3129 3133 3136 3138 3140 3142 3144 3146 3147
3057 3059 3062 3063 3065 3066 3068 3069 3070 3071 3073 3074 3075 3076 3078 3079 3080 3081 3081 3084 3086 3089 3092 3096 3100 3103 3106 3110 3112 3115 3118 3121 3125 3128 3132 3135 3137 3140 3141 3143 3144 3144 3145
3058 3059 3062 3064 3065 3067 3068 3070 3072 3073 3075 3076 3078 3079 3081 3082 3083 3085 3087 3089 3091 3094 3096 3099 3103 3106 3109 3112 3116 3119 3121 3124 3127 3130 3132 3135 3137 3139 3140 3141 3142 3143 3143
3057 3060 3062 3064 3066 3067 3069 3071 3073 3074 3076 3078 3080 3082 3083 3085 3087 3089 3091 3093 3095 3098 3100 3102 3104 3107 3110 3114 3117 3120 3123 3126 3128 3130 3133 3135 3136 3138 3139 3139 3139 3139 3138
3056 3058 3061 3064 3065 3067 3069 3071 3073 3075 3076 3078 3080 3082 3085 3086 3088 3090 3092 3095 3097 3100 3102 3105 3107 3109 3111 3114 3117 3119 3122 3124 3127 3129 3131 3133 3134 3134 3134 3135 3135 3135 3133
3054 3057 3059 3062 3064 3066 3068 3070 3072 3075 3077 3079 3081 3083 3084 3087 3089 3091 3093 3095 3098 3100 3102 3104 3106 3109 3111 3113 3115 3118 3120 3123 3125 3127 3128 3129 3130 3130 3131 3131 3130 3129 3126
3052 3054 3057 3059 3062 3064 3067 3069 3071 3073 3075 3078 3080 3082 3084 3086 3088 3090 3092 3095 3097 3099 3102 3104 3106 3107 3109 3111 3113 3115 3117 3119 3121 3123 3124 3125 3126 3126 3126 3125 3124 3122 3121
3049 3051 3053 3056 3058 3061 3063 3066 3069 3071 3073 3075 3077 3080 3082 3085 3087 3089 3091 3093 3096 3098 3100 3102 3103 3105 3106 3108 3109 3111 3113 3114 3116 3117 3119 3120 3120 3121 3121 3119 3118 3117 3115
3046 3048 3051 3053 3055 3057 3059 3062 3065 3067 3070 3072 3075 3077 3079 3081 3084 3086 3088 3090 3092 3095 3097 3099 3100 3101 3103 3104 3105 3106 3107 3108 3109 3111 3112 3113 3113 3114 3113 3113 3111 3110 3104
3041 3044 3047 3050 3052 3054 3056 3059 3062 3064 3066 3069 3072 3074 3076 3079 3081 3082 3084 3086 3088 3090 3091 3093 3094 3096 3097 3098 3099 3100 3101 3102 3103 3104 3105 3105 3106 3106 3105 3103 3099 3099 3097
3036 3039 3042 3045 3048 3051 3054 3056 3058 3061 3064 3066 3068 3070 3073 3074 3076 3077 3079 3081 3083 3085 3086 3087 3088 3088 3090 3091 3092 3093 3094 3095 3096 3097 3098 3099 3099 3100 3099 3096 3093 3092 3088
3031 3033 3037 3040 3043 3047 3049 3052 3055 3058 3060 3062 3064 3066 3068 3069 3071 3072 3073 3075 3076 3078 3080 3081 3081 3081 3082 3083 3084 3085 3086 3088 3089 3090 3091 3092 3092 3091 3089 3087 3086 3082 3080
3024 3027 3030 3034 3038 3041 3043 3046 3049 3052 3055 3056 3058 3060 3061 3063 3065 3066 3067 3069 3070 3071 3072 3073 3074 3074 3075 3076 3077 3078 3079 3080 3081 3081 3083 3083 3082 3082 3080 3079 3077 3074 3072
3015 3019 3023 3026 3030 3033 3036 3039 3042 3044 3047 3049 3051 3052 3054 3056 3058 3059 3060 3061 3062 3064 3065 3066 3066 3067 3067 3067 3069 3070 3071 3072 3073 3073 3073 3074 3072 3070 3069 3067 3066 3064 3062
3003 3006 3011 3015 3020 3023 3027 3030 3033 3036 3038 3041 3043 3044 3046 3048 3049 3050 3052 3053 3054 3056 3057 3057 3058 3059 3060 3060 3060 3061 3062 3064 3064 3064 3063 3062 3061 3060 3060 3058 3055 3055 3053